THOR ABLESTAR DEB, 334

Orbit data source: Space-Track

THOR ABLESTAR DEB, 334 is space debris in LEO originally from a launch on Thu, 29 Jun 1961 UTC launched from the Air Force Eastern Test Range (AFETR). Debris objects in space refer to the collection of defunct objects orbiting the Earth. Examples of debris include non-operational satellites, rocket bodies, and fragments generated from explosions, collisions, or faulty payload assembly.

Loading next visibility...
Identifier
334, 1961-015DL
Orbit
LEO
Last TLE update
7 hours ago
Origin
Manufacturer
Unknown
Mission
Spacecraft
Bus & Motor
Unknown
Mass
Unknown
Launch date (UTC)
1961-06-29 (64 years ago)
Launch vehicle
Unknown
Launch site
Air Force Eastern Test Range (AFETR)
Object type
Payload
Rocket body
Debris
Shape & HBR
Unknown
Radar Cross Section
Small (<0.1 m²)

Expand to show TLE details & history

TLE from 7 hours ago
0 THOR ABLESTAR DEB
1 00334U 61015DL  25182.87551023 -.00000010  00000-0  50951-4 0  9998
2 00334  66.9252 316.3156 0080127 350.7709   9.1893 13.91671285247316
Epoch: 2025-07-01T21:00Z
TLE epoch observation values (Epoch: 2025-07-01T21:00:44.083Z)
Latitude
-0.00008°
Longitude
80.9672°
Altitude
867.123 km
Speed
7.449 km/s
True Right ascension
21h 05m 15s
True Declination
0° 00' 00"
Sunlit
Object was in full shadow at epoch
Visualization orbit readout
Latitude
-47.14081°
Longitude
53.11952°
Altitude
897.257 km
Speed
7.425 km/s
Apparent Right ascension
23h 15m 02s
Apparent Declination
-62° 55' 59"
Sunlit
Object is in full shadow
Visualization observer readout
Local Sidereal Time
15:21:02
Azimuth
143.664° SSE
Elevation
-47.554°
Doppler factor
1
Orbital elements
Apogee altitude
979.645 km
Perigee altitude
862.671 km
Semi-major axis
7,299.295 km
Eccentricity
0.00801
Inclination
66.9252°
RAAN
316.3156°
Arg. of periapsis
350.7709°
True anomaly
Unknown
Mean anomaly
9.1893°
Eccentric anomaly
Unknown
Mean motion
3.48034 °/min
Orbital period
103.44 mins
BSTAR
0.000050951
Loading maneuver chart data...
Loading SW <> Apogee altitude chart data...

THOR ABLESTAR DEB Visibility forecast

Observer location: undefined°, undefined°

Span
Click to sort rows by Start time (UTC) header in descending order
Start Az.
Max El. time (UTC)
Max El. Az.
Max El.
End time (UTC)
End Az.
7 mins2025-07-02 09:12:46.140Z141.392° SSE2025-07-02 09:15:46.140Z107.245° ESE17.827°2025-07-02 09:19:46.140Z63.063° ENE
9 mins2025-07-02 10:57:46.140Z224.976° SW2025-07-02 11:01:46.140Z304.219° NW41.812°2025-07-02 11:06:46.140Z21.378° NNE
4 mins2025-07-02 12:47:46.140Z306.646° NW2025-07-02 12:49:46.140Z327.884° NNW12.664°2025-07-02 12:51:46.140Z347.965° N
8 mins2025-07-02 18:14:46.140Z2.434° NNE2025-07-02 18:18:46.140Z50.006° ENE21.752°2025-07-02 18:22:46.140Z93.426° ESE
10 mins2025-07-02 20:00:46.140Z324.039° NNW2025-07-02 20:05:46.140Z220.644° SW42.771°2025-07-02 20:10:46.140Z164.213° S
|